Вернуться в каталог

YAOGAN 20B

АктивенВоенныеLEO
NORAD 40110·PAYLOAD·🇨🇳 China

Запущен Aug 9, 2014 с Jiuquan Satellite Launch Center

Loading…

Ближайшие Пролёты (ближайшие 24 часа)

TLE

СвежийSource: Space-Track

Эпоха: Sep 14, 2026, 15:02 UTC

1 40110U 14047B   26257.62672624 -.00000074  00000-0  17273-4 0  9995
2 40110  63.3781 149.4039 0397914  15.1907 346.0669 13.45446248594319

Отслеживайте YAOGAN 20B в реальном времени с AllMySat

Download on the App Store